FALCON 9 DEB (48701 NORAD) Tracking and Keplerian Element Data

This shows tracking and keplerian element data for the satellite.

Feedback or suggestion? Click here.




ElementValue
Catalog48701
NameFALCON 9 DEB
Epoch Orbit381
Epoch Day170.44533542
Epoch Year2021
RAAN302.5735
Inclination53.0428
Eccentricity0.0014815
Argument of Perigee293.5324
Mean Anonmoly66.4158
Mean Motion16.22090959
Decay Rate0.00994614
L11 48701U 21044BR 21170.44533542 .00994614 11869-4 41496-3 0 9991
L22 48701 53.0428 302.5735 0014815 293.5324 66.4158 16.22090959 3811

Live tracking and technical data element details for FALCON 9 DEB (NORAD 48701). FALCON 9 DEB can be tracked NOW for your location showing map with azimuth and elevation plus other details from your city location.

Track the satellite on the map from your city or location and see movement details for azimuth, elevation, latitude, longitude, range, height, and movement on the map or in text.







IsCatalogInMostPopularTable: catalog: 48701, numindb: 3
Update: records affected: 1



GetName: 48701 FALCON 9 DEB

Hit Count: updated at: Mon, 21 Jun 2021 04:08:43 GMT